Easton, MD

3:46 AM EDT on October 24, 2017 (GMT -0400)
Easton / Newnam

Weather History for KESN - October, 2012

Change the Weather History Date:

Sunday, October 14, 2012

  Actual Average Record
Temperature  
Mean Temperature 60 °F -  
Max Temperature 73 °F 75 °F 86 °F (1954)
Min Temperature 46 °F 53 °F 35 °F (1963)
Degree Days  
Heating Degree Days 6    
Growing Degree Days 10 (Base 50)    
Moisture  
Dew Point 52 °F    
Average Humidity 85    
Maximum Humidity 100    
Minimum Humidity 44    
Precipitation  
Precipitation 0.00 in - - ()
Sea Level Pressure  
Sea Level Pressure 30.22 in    
Wind  
Wind Speed 7 mph (SSW)    
Max Wind Speed 15 mph    
Max Gust Speed 23 mph    
Visibility 10 miles    
Events      
Averages and records for this station are not official NWS values.
T = Trace of Precipitation, MM = Missing Value Source: NWS Daily Summary

Daily Weather History Graph

Daily Weather History Graph

Search for Another Location

Airport or City:

Trip Planner

Search our weather history database for the weather conditions in past years. The results will help you decide how hot, cold, wet, or windy it might be!

Date:

Astronomy

Oct. 14, 2012 Rise Set
Actual Time 7:13 AM EDT 6:26 PM EDT
Civil Twilight 6:46 AM EDT 6:53 PM EDT
Nautical Twilight 6:15 AM EDT 7:24 PM EDT
Astronomical Twilight 5:44 AM EDT 7:55 PM EDT
Moon 6:09 AM EDT (10/14) 5:45 PM EDT (10/14)
Length of Visible Light 12h 07m
Length of Day
11h 13m
Waning Crescent, 1% of the Moon is Illuminated
Oct 14
Waning Crescent
Oct 15
New
Oct 21
First Quarter
Oct 29
Full
Nov 6
Last Quarter

Hourly Weather History & Observations

Time (EDT) Temp. Windchill Dew Point Humidity Pressure Visibility Wind Dir Wind Speed Gust Speed Precip Events Conditions
12:19 AM 49.1 °F - 46.0 °F 89% 30.35 in 10.0 mi South 6.9 mph - N/A   Clear
1:01 AM 50.0 °F - 47.3 °F 90% 30.34 in 10.0 mi South 8.1 mph - N/A   Clear
1:23 AM 50.2 °F - 47.7 °F 91% 30.33 in 10.0 mi South 8.1 mph - N/A   Clear
1:44 AM 50.0 °F - 48.0 °F 93% 30.32 in 10.0 mi South 5.8 mph - N/A   Clear
2:05 AM 50.0 °F - 48.4 °F 94% 30.31 in 10.0 mi South 5.8 mph - N/A   Clear
2:27 AM 49.1 °F - 48.2 °F 97% 30.31 in 10.0 mi South 4.6 mph - N/A   Clear
2:48 AM 49.1 °F - 48.4 °F 97% 30.31 in 10.0 mi South 4.6 mph - N/A   Clear
3:09 AM 48.2 °F - 48.2 °F 100% 30.30 in 10.0 mi South 3.5 mph - N/A   Clear
3:30 AM 47.8 °F - 47.8 °F 100% 30.30 in 10.0 mi Calm Calm - N/A   Clear
3:52 AM 46.2 °F 45.0 °F 46.2 °F 100% 30.29 in 10.0 mi South 3.5 mph - N/A   Clear
4:13 AM 47.3 °F - 47.3 °F 100% 30.28 in 10.0 mi South 4.6 mph - N/A   Clear
4:34 AM 49.1 °F - 49.1 °F 100% 30.27 in 10.0 mi South 5.8 mph - N/A   Clear
4:56 AM 49.1 °F - 49.1 °F 100% 30.27 in 10.0 mi South 5.8 mph - N/A   Clear
5:17 AM 48.2 °F - 48.2 °F 100% 30.28 in 10.0 mi South 4.6 mph - N/A   Clear
5:38 AM 48.2 °F - 48.2 °F 100% 30.28 in 10.0 mi Calm Calm - N/A   Clear
5:50 AM 48.2 °F - 48.2 °F 100% 30.27 in 10.0 mi South 6.9 mph - N/A   Clear
5:59 AM 49.5 °F - 49.5 °F 100% 30.27 in 10.0 mi SSW 5.8 mph - N/A   Clear
6:13 AM 50.4 °F - 50.4 °F 100% 30.27 in 10.0 mi SSW 4.6 mph - N/A   Clear
6:53 AM 48.2 °F - 48.2 °F 100% 30.28 in 10.0 mi SE 5.8 mph - N/A   Clear
7:53 AM 50.0 °F - 50.0 °F 100% 30.28 in 10.0 mi SSE 5.8 mph - N/A   Clear
8:53 AM 59.0 °F - 53.6 °F 82% 30.28 in 10.0 mi SW 6.9 mph - N/A   Clear
9:53 AM 64.4 °F - 53.6 °F 68% 30.29 in 10.0 mi WSW 9.2 mph 18.4 mph N/A   Clear
10:53 AM 66.2 °F - 53.6 °F 64% 30.28 in 10.0 mi SW 15.0 mph - N/A   Clear
11:48 AM 68.0 °F - 53.6 °F 60% 30.26 in 10.0 mi WSW 11.5 mph 23.0 mph N/A   Clear
12:52 PM 71.6 °F - 53.6 °F 53% 30.22 in 10.0 mi WSW 10.4 mph 16.1 mph N/A   Clear
1:50 PM 73.4 °F - 50.0 °F 44% 30.18 in 10.0 mi SSW 15.0 mph - N/A   Clear
2:53 PM 73.4 °F - 53.6 °F 50% 30.15 in 10.0 mi SSW 13.8 mph 20.7 mph N/A   Scattered Clouds
3:53 PM 73.4 °F - 55.4 °F 53% 30.12 in 10.0 mi SSW 13.8 mph 21.9 mph N/A   Scattered Clouds
4:53 PM 71.6 °F - 55.4 °F 57% 30.10 in 10.0 mi SSW 12.7 mph 18.4 mph N/A   Mostly Cloudy
5:53 PM 68.0 °F - 57.2 °F 68% 30.09 in 10.0 mi South 9.2 mph 17.3 mph N/A   Mostly Cloudy
6:53 PM 66.2 °F - 57.2 °F 73% 30.08 in 10.0 mi South 8.1 mph - N/A   Mostly Cloudy
7:53 PM 64.4 °F - 59.0 °F 83% 30.07 in 10.0 mi South 9.2 mph - N/A   Mostly Cloudy
8:53 PM 64.4 °F - 57.2 °F 77% 30.06 in 10.0 mi SSW 11.5 mph 17.3 mph N/A   Mostly Cloudy
10:38 PM 63.5 °F - 60.1 °F 89% 30.04 in 10.0 mi South 10.4 mph - N/A   Clear
10:59 PM 63.7 °F - 60.4 °F 89% 30.02 in 10.0 mi South 11.5 mph - N/A   Clear
11:20 PM 63.5 °F - 60.4 °F 90% 30.01 in 10.0 mi South 9.2 mph - N/A   Clear
11:42 PM 63.9 °F - 60.8 °F 90% 30.00 in 10.0 mi South 5.8 mph - N/A   Clear